Weather observations for the past three days for
Renton Municipal Airport
Imperial (Metric)
Date Time (pdt) Wind (mph) Vis. (mi.) Weather Sky Cond. Temperature (ºF) Relative Humidity Wind Chill (°F) Heat Index (°F) Pressure Precipitation (in)
Air Dwpt 6 hour altimeter (in) sea level (mb) 1 hr 3 hr 6 hr
Max. Min.
24 07:53 S 3 8.00 Fair CLR 60.1 51.1 72% 30.11 1020.0
24 06:53 Calm 8.00 Fair CLR 55.9 48.9 77% 30.11 1020.0
24 05:53 SE 3 8.00 Fair CLR 55 48.9 80% 30.1 1019.8
24 04:53 S 3 8.00 Fair CLR 55.9 48.9 66 55.9 77% 30.1 1019.9
24 03:53 Calm 10.00 Fair CLR 57 48.9 74% 30.1 1019.8
24 02:53 N 8 10.00 Fair CLR 61 48.9 65% 30.09 1019.4
24 01:53 Vrbl 3 10.00 Fair CLR 61 50 67% 30.09 1019.5
24 00:53 N 9 10.00 Fair CLR 63 50 63% 30.09 1019.2
23 23:53 N 6 10.00 Fair CLR 63 48 58% 30.08 1019.0
23 22:53 N 9 10.00 Fair CLR 66 50 75.9 64.9 56% 30.08 1019.0
23 21:53 NW 9 10.00 Fair CLR 66.9 46.9 49% 30.07 1018.9
23 20:53 NW 8 9.00 Fair CLR 70 44.1 39% 30.05 1018.2
23 19:53 N 7 9.00 Fair CLR 73 44.1 35% 30.05 1018.1
23 18:53 N 7 9.00 Fair CLR 75 46 36% 77 30.06 1018.5
23 17:53 N 9 9.00 Fair CLR 75 48 39% 77 30.07 1018.8
23 16:53 NW 10 9.00 Fair CLR 75 48 75.9 68 39% 77 30.09 1019.3
23 15:53 NW 12 8.00 Fair CLR 75.9 48 37% 78 30.1 1019.9
23 14:53 NW 12 8.00 Fair CLR 75 50 42% 78 30.12 1020.4
23 13:53 NW 12 7.00 Fair CLR 73 51.1 46% 30.13 1020.9
23 12:53 NW 12 7.00 Fair CLR 71.1 52 51% 30.15 1021.4
23 11:53 NW 12 7.00 Fair CLR 70 51.1 51% 30.17 1022.1
23 10:53 N 12 9.00 Fair CLR 68 50 68 60.1 53% 30.18 1022.5
23 09:53 N 8 9.00 Fair CLR 66 48.9 54% 30.19 1022.9
23 08:53 N 10 9.00 Fair CLR 63 48.9 60% 30.2 1023.0
23 07:53 N 9 9.00 Fair CLR 62.1 50 65% 30.2 1023.2
23 06:53 N 7 9.00 Fair CLR 60.1 48.9 67% 30.2 1023.2
23 05:53 N 5 10.00 Mostly Cloudy FEW045 BKN065 60.1 48.9 67% 30.22 1023.7
23 04:53 Vrbl 3 10.00 Overcast OVC042 60.1 48.9 62.1 60.1 67% 30.23 1024.0
23 03:53 Calm 10.00 Overcast OVC040 61 50 67% 30.22 1023.8
23 02:53 N 7 10.00 Overcast OVC037 61 50 67% 30.21 1023.4
23 01:53 Vrbl 3 10.00 Overcast OVC033 61 50 67% 30.2 1023.2
23 00:53 Vrbl 5 10.00 Overcast OVC032 61 50 67% 30.19 1022.8
22 23:53 N 6 10.00 Overcast OVC029 61 52 72% 30.18 1022.3
22 22:53 Vrbl 6 10.00 Overcast FEW026 OVC032 61 54 69.1 61 78% 30.17 1022.0
22 21:53 N 9 10.00 Overcast OVC055 62.1 55 78% 30.16 1021.6
22 20:53 N 9 G 21 8.00 Overcast FEW031 SCT041 OVC050 63 55.9 78% 30.13 1020.8
22 19:53 Calm 8.00 Mostly Cloudy BKN032 66.9 55 66% 30.13 1020.7
22 18:53 Vrbl 3 8.00 Overcast OVC060 69.1 55 61% 30.13 1020.6
22 17:53 Vrbl 3 8.00 Overcast FEW030 OVC047 68 55 63% 30.14 1020.9
22 16:53 Calm 9.00 Overcast OVC036 66 54 66.9 62.1 65% 30.13 1020.9
22 15:53 Vrbl 6 9.00 Overcast OVC032 66.9 54 63% 30.14 1020.9
22 14:53 SW 5 8.00 Overcast OVC033 66 54 65% 30.14 1021.0
22 13:53 S 7 7.00 Overcast OVC033 66 54 65% 30.13 1020.8
22 12:53 S 7 7.00 Overcast OVC021 64.9 54 68% 30.13 1020.6
22 11:53 S 5 7.00 Overcast OVC018 63 55 76% 30.12 1020.5
22 10:53 Vrbl 5 7.00 Overcast OVC018 63 55 63 60.1 76% 30.12 1020.3
22 09:53 S 5 7.00 Overcast OVC015 62.1 55 78% 30.11 1020.1
22 08:53 S 3 6.00 Overcast with Haze OVC014 60.1 55 84% 30.12 1020.4
22 07:53 SW 3 6.00 Overcast with Haze OVC013 60.1 55 84% 30.11 1020.2
22 06:53 S 5 6.00 Overcast with Haze OVC015 60.1 55 84% 30.11 1019.9
22 05:53 SE 5 8.00 Overcast OVC016 60.1 54 80% 30.1 1019.8
22 04:53 Vrbl 3 7.00 Overcast OVC017 62.1 55 70 62.1 78% 30.1 1019.6
22 03:53 S 6 8.00 Overcast OVC016 63 55 76% 30.09 1019.5
22 02:53 SW 5 10.00 Overcast OVC020 63 55.9 78% 30.1 1019.6
22 01:53 Vrbl 3 10.00 Fair CLR 64 55.9 75% 30.09 1019.3
22 00:53 Vrbl 3 10.00 Fair CLR 66 55 68% 30.08 1019.2
21 23:53 Calm 10.00 NULL NULL 69.1 55 61% 30.07 1018.8
21 22:53 N 3 10.00 Fair CLR 70 55.9 79 70 61% 30.06 1018.3
21 21:53 N 6 10.00 Fair CLR 72 53.1 52% 30.06 1018.4
21 20:53 Calm 10.00 Fair CLR 73 59 62% 30.05 1018.1
21 19:53 N 6 10.00 Fair CLR 75 61 62% 77 30.04 1017.8
21 18:53 N 7 10.00 Fair CLR 78.1 59 52% 79 30.04 1017.7
21 17:53 N 6 10.00 Fair CLR 79 57.9 49% 80 30.04 1017.8
21 16:53 Calm 10.00 Fair CLR 78.1 57.9 79 66.9 50% 79 30.06 1018.5
21 15:53 Calm 10.00 Fair CLR 78.1 59 52% 79 30.07 1018.6
21 14:53 S 6 10.00 Fair CLR 75 59 58% 77 30.07 1018.8
21 13:53 NW 5 10.00 Fair CLR 71.1 59 66% 30.07 1018.8
21 12:53 Vrbl 6 10.00 A Few Clouds FEW110 68 57.9 70% 30.08 1019.0
21 11:53 Vrbl 5 10.00 Partly Cloudy FEW100 SCT120 66.9 57.9 73% 30.08 1018.9
21 10:53 SW 6 10.00 Fair CLR 69.1 57.9 71.1 63 68% 30.09 1019.5
21 09:53 Vrbl 3 10.00 Fair CLR 66.9 57.9 73% 30.05 1018.1
21 08:53 Calm 10.00 Fair CLR 70 57 64% 30.06 1018.4
Date Time (pdt) Wind (mph) Vis. (mi.) Weather Sky Cond. Air Dwpt Max. Min. Relative Humidity Wind Chill (°F) Heat Index (°F) altimeter (in) sea level (mb) 1 hr 3 hr 6 hr
6 hour
Temperature (ºF) Pressure Precipitation (in)